Regional Weather Roundup
Issued by NWS

Home | Current Version | Previous Version | Graphics & Text | Print | Product List | Glossary On
Versions: 1 2 3 4 5 6 7 8 9 10 11 12 13 14 15 16 17 18 19 20 21 22 23 24 25 26 27 28 29 30 31 32 33 34 35 36 37 38 39 40 41 42 43 44 45 46 47 48 49 50
000
ASUS43 KMKX 011711
RWRWI

WISCONSIN REGIONAL WEATHER ROUNDUP
NATIONAL WEATHER SERVICE MILWAUKEE/SULLIVAN WI
1100 AM CST SUN FEB 01 2015

NOTE: "FAIR" INDICATES FEW OR NO CLOUDS BELOW 12,000 FEET WITH NO
SIGNIFICANT WEATHER AND/OR OBSTRUCTIONS TO VISIBILITY.

WIZ001-002-006>008-014>016-023>028-011800-
NORTHWEST WISCONSIN

CITY           SKY/WX    TMP DP  RH WIND       PRES   REMARKS
SUPERIOR ARPT  MOSUNNY    9  -6  52 NE12G18   30.40S WCI  -6
ASHLAND        LGT SNOW  10   4  76 N22G31    30.35S WCI -10
HAYWARD        CLOUDY    10   2  69 NE16      30.27F WCI  -7
SIREN          CLOUDY    12   3  66 NE13G22   30.30S WCI  -3
CUMBERLAND     CLOUDY    12   1  62 NE16G24   30.23S WCI  -4
RICE LAKE      CLOUDY    12   1  59 NE20G25   30.26S WCI  -6
CHETEK         CLOUDY    11   0  60 N8        30.24F WCI  -1
LADYSMITH      CLOUDY    11   1  66 NE12G22   30.25S WCI  -4
EAU CLAIRE     CLOUDY    12   1  61 NE13      30.21F WCI  -3
MENOMONIE      CLOUDY    13   2  60 N16G22    30.23S WCI  -3
NEW RICHMOND   CLOUDY    13   1  59 NE17G25   30.25S WCI  -4
OSCEOLA        CLOUDY    14   3  62 NE17      30.30S WCI  -3
$$

WIZ003>005-009-010-017-018-011800-
NORTH CENTRAL WISCONSIN

CITY           SKY/WX    TMP DP  RH WIND       PRES   REMARKS
MANITOWISH WTR CLOUDY     7  -1  70 NE10G20   30.22F WCI  -8
ARBOR VITAE    CLOUDY     9   1  70 NE13G18   30.21S WCI  -7
WOODRUFF       CLOUDY     9   1  70 NE13G18   30.21S WCI  -7
RHINELANDER    CLOUDY     7  -1  70 E9        30.20R WCI  -7
EAGLE RIVER    CLOUDY     8  -2  66 NE13      30.21R WCI  -8
LAND O LAKES   CLOUDY     8   1  72 NE7       30.22F WCI  -4
PHILLIPS       CLOUDY     7  -1  70 NE16G24   30.22S WCI -11
TOMAHAWK       CLOUDY     9   0  65 NE13G22   30.20F WCI  -7
MEDFORD        CLOUDY     9   1  68 NE14G20   30.16F WCI  -7
MERRILL        CLOUDY    10   1  67 E15       30.18F WCI  -6
$$

WIZ029-030-035-036-043>047-011800-
CENTRAL WISCONSIN

CITY           SKY/WX    TMP DP  RH WIND       PRES   REMARKS
WAUSAU         CLOUDY    11   2  67 NE16G23   30.17F WCI  -6
MOSINEE        NOT AVBL
MARSHFIELD     CLOUDY    12   3  67 NE16G25   30.14F WCI  -5
STEVENS POINT  CLOUDY    10   1  69 NE16G25   30.16F WCI  -8
WAUPACA        LGT SNOW  15   7  71 N15G24    30.17F WCI  -1
WAUTOMA        LGT SNOW  14   9  79 NE17G25   30.13F VSB 3/4 WCI  -3
WISC RAPIDS    LGT SNOW  12   5  73 NE13      30.16F WCI  -3
CAMP DOUGLAS   LGT SNOW  14  12  92 NE10G20   30.12S BLWGSNOWWCI   1
$$

WIZ011>013-019>022-031-037>040-048>050-011800-
NORTHEAST WISCONSIN

CITY           SKY/WX    TMP DP  RH WIND       PRES   REMARKS
ANTIGO         CLOUDY     9   3  76 NE17      30.16F WCI  -9
SHAWANO        CLOUDY    13   3  65 NE13G21   30.23F WCI  -2
OCONTO         CLOUDY     9   1  68 NE14G26   30.25F WCI  -7
STURGEON BAY   CLOUDY    10   3  72 NE18G24   30.24F WCI  -8
GREEN BAY      LGT SNOW  10   4  76 NE30G39   30.20F WCI -12
MANITOWOC      LGT SNOW  18  16  93 NE12G18   30.14F FOG     WCI   5
APPLETON       LGT SNOW  10   7  85 NE21G32   30.15F WCI  -9
CLINTONVILLE   CLOUDY    12   3  67 NE18      30.20F WCI  -5
OSHKOSH        SNOW      11   7  84 NE23G35   30.12F VSB 1/2 WCI  -9
$$

WIZ032>034-041-042-053>061-011800-
SOUTHWEST WISCONSIN

CITY           SKY/WX    TMP DP  RH WIND       PRES   REMARKS
LA CROSSE      LGT SNOW  17   9  70 N13       30.14R WCI   4
SPARTA         LGT SNOW  15   9  77 NE18G24   30.13S WCI  -2
VIROQUA        CLOUDY    14  10  83 NE18      30.04R WCI  -3
BOSCOBEL       LGT SNOW  19  12  74 NE13G24   30.03S WCI   6
PRAIRIE DU CHI MIX PCPN  19  12  75 NE12G22   30.02S WCI   6
PLATTEVILLE    CLOUDY    19  16  88 N22G33    29.92R VSB 3/4 WCI   2
$$

WIZ056-057-062-063-064-067-068-011800-
SOUTH CENTRAL WISCONSIN

CITY           SKY/WX    TMP DP  RH WIND       PRES   REMARKS
REEDSBURG      LGT SNOW  14  10  84 NE12G21   30.06S VSB 1   WCI   0
BARABOO/DELLS  SNOW      14  10  83 NE17G31   30.05F VSB 1/2 WCI  -3
LONE ROCK      LGT SNOW  17  11  77 NE16G23   30.04R WCI   2
MINERAL POINT  LGT SNOW  19  16  86 NE22G30   29.93S VSB 1   WCI   3
MADISON        LGT SNOW  16  11  80 NE24G32   30.01F BLWGSNOWWCI  -2
MIDDLETON      CLOUDY    19  13  78 NE20G30   30.00F WCI   3
WATERTOWN      LGT SNOW  20  16  84 NE20G28   30.00F WCI   5
MONROE         LGT SNOW  19  18  93 NE22G29   29.91F WCI   3
JANESVILLE     CLOUDY    25  21  86 NE18G25   29.94R VSB 1   WCI  11
$$

WIZ051-052-058>065-066-070>072-011800-
SOUTHEAST WISCONSIN

CITY           SKY/WX    TMP DP  RH WIND       PRES   REMARKS
MILWAUKEE      SNOW      23  19  85 NE26G35   30.01F VSB 1/4 WCI   6
WAUKESHA       LGT SNOW  21  19  93 NE12G29   30.00F VSB 1   WCI   9
MILWAUKEE/TIMM LGT SNOW  21  18  86 NE14G25   30.03F VSB 3/4 WCI   8
RACINE         SNOW      24  20  84 NE20G33   29.99F VSB 1/4 WCI  10
BURLINGTON     LGT SNOW  22  19  90 NE18G25   29.95F WCI   7
KENOSHA        SNOW      24  21  88 NE25G36   29.94F VSB 1/4 WCI   8
FOND DU LAC    LGT SNOW  14   9  80 N24G31    30.11S VSB 3/4 WCI  -5
SHEBOYGAN      SNOW      19  15  84 NE25G33   30.10F VSB 1/2 WCI   1
WEST BEND      LGT SNOW  21  16  79 NE17G24   30.05S WCI   7
JUNEAU         LGT SNOW  18  15  86 NE21G28   30.03F WCI   2
$$

LSZ147-162-011800-
LAKE SUPERIOR

STATION/POSITION TIME  TEMP    WIND        PRES    WAVE
                       AIR SEA DIR/SP/G            HT/PER
                 (UTC) (F)     (DEG/KT/KT) (MB)    (FT/S)
DEVILS ISLAND    1700    8      40/ 13/ 16 1031.3F
PORT WING        1600   13      40/ 17/ 22 1029.1F
SAXON HARBOR     1600   13      70/ 10/ 13 1027.8F
$$

LMZ867-665-643>646-011800-
LAKE MICHIGAN

STATION/POSITION TIME  TEMP    WIND        PRES    WAVE
                       AIR SEA DIR/SP/G            HT/PER
                 (UTC) (F)     (DEG/KT/KT) (MB)    (FT/S)
NORTHPORT PIER   1600   11      50/ 15/ 25 1025.7
SISTER BAY       1643   11      30/ 12/ 14   N/A
KEWAUNEE LAKESHO 1600   19      50/ 22/ 29 1021.8F
SHEBOYGAN LAKESH 1700   20      40/ 28/ 31 1020.7F
PORT WASHINGTON  1601   24      50/ 23     1019.3F
MILWAUKEE LAKESH 1600   24      60/ 27/ 31   N/A
KENOSHA   LAKESH 1700   25      60/ 30/ 35 1013.9F
$$

TC  - TEMPERATURE IN CELSIUS
VSB - VISIBILITY IN STATUTE MILES
WCI - WIND CHILL INDEX
HX  - HEAT INDEX




USA.gov is the U.S. government's official web portal to all federal, state and local government web resources and services.